QPF
0.00 0.00 0.02 0.01 0.00 0.00 0.00 0.00 0.00 0.00 0.00 0.00 0.00 0.00 0.00 0.00 0.00 0.00 0.00 0.00 0.00 0.00 0.00 0.00 0.00 0.01 0.04 0.05 0.00 0.00 0.00 0.00 0.00 0.00 0.00 0.00 0.00 0.00 0.00 0.00 0.00 0.01 0.01
0.00 0.00 0.02 0.01 0.01 0.00 0.00 0.00 0.00 0.00 0.00 0.00 0.00 0.00 0.00 0.00 0.00 0.00 0.00 0.00 0.00 0.00 0.01 0.01 0.02 0.01 0.03 0.01 0.00 0.00 0.00 0.00 0.00 0.00 0.00 0.00 0.00 0.00 0.00 0.00 0.01 0.00 0.00
0.00 0.00 0.01 0.03 0.01 0.01 0.00 0.00 0.00 0.00 0.00 0.00 0.00 0.00 0.00 0.00 0.00 0.00 0.00 0.00 0.00 0.01 0.01 0.01 0.01 0.02 0.01 0.00 0.00 0.00 0.00 0.00 0.00 0.00 0.00 0.00 0.00 0.00 0.00 0.01 0.01 0.00 0.00
0.01 0.01 0.02 0.02 0.02 0.01 0.00 0.00 0.00 0.00 0.00 0.00 0.01 0.01 0.01 0.00 0.00 0.00 0.00 0.00 0.00 0.01 0.01 0.00 0.01 0.01 0.00 0.00 0.00 0.00 0.00 0.00 0.00 0.00 0.00 0.00 0.00 0.00 0.00 0.00 0.00 0.00 0.00
0.01 0.02 0.03 0.02 0.01 0.02 0.01 0.01 0.01 0.00 0.00 0.00 0.01 0.01 0.02 0.00 0.00 0.00 0.00 0.00 0.00 0.00 0.00 0.00 0.00 0.00 0.00 0.00 0.00 0.00 0.00 0.00 0.00 0.00 0.00 0.00 0.00 0.00 0.00 0.00 0.00 0.00 0.00
0.02 0.02 0.02 0.05 0.06 0.05 0.06 0.08 0.07 0.04 0.02 0.00 0.00 0.00 0.00 0.00 0.00 0.00 0.00 0.00 0.00 0.00 0.00 0.00 0.00 0.00 0.00 0.00 0.00 0.00 0.00 0.00 0.00 0.00 0.00 0.00 0.00 0.00 0.01 0.00 0.00 0.00 0.01
0.01 0.01 0.01 0.02 0.06 0.06 0.04 0.03 0.04 0.07 0.07 0.00 0.00 0.00 0.00 0.00 0.00 0.00 0.00 0.00 0.00 0.00 0.00 0.00 0.00 0.00 0.00 0.00 0.00 0.00 0.00 0.00 0.00 0.00 0.00 0.00 0.00 0.00 0.00 0.00 0.00 0.00 0.00
0.00 0.00 0.00 0.01 0.01 0.03 0.05 0.04 0.04 0.04 0.09 0.10 0.01 0.00 0.00 0.00 0.00 0.00 0.00 0.00 0.00 0.00 0.00 0.00 0.00 0.00 0.00 0.00 0.00 0.00 0.00 0.00 0.00 0.00 0.00 0.00 0.00 0.00 0.00 0.00 0.00 0.00 0.00
0.00 0.00 0.00 0.00 0.00 0.00 0.01 0.07 0.10 0.06 0.07 0.11 0.11 0.01 0.00 0.00 0.00 0.01 0.01 0.00 0.00 0.00 0.00 0.00 0.00 0.00 0.00 0.00 0.00 0.00 0.00 0.00 0.00 0.00 0.00 0.00 0.00 0.00 0.00 0.00 0.00 0.00 0.00
0.00 0.00 0.00 0.00 0.00 0.00 0.00 0.01 0.05 0.06 0.04 0.01 0.02 0.01 0.00 0.01 0.01 0.00 0.00 0.00 0.02 0.01 0.01 0.00 0.00 0.00 0.00 0.00 0.00 0.00 0.00 0.00 0.00 0.00 0.00 0.00 0.00 0.00 0.00 0.00 0.00 0.00 0.00
0.00 0.00 0.00 0.00 0.00 0.00 0.00 0.00 0.01 0.03 0.07 0.05 0.01 0.00 0.00 0.00 0.01 0.01 0.00 0.00 0.01 0.02 0.00 0.00 0.00 0.00 0.00 0.00 0.00 0.00 0.00 0.00 0.00 0.00 0.00 0.00 0.00 0.00 0.00 0.00 0.00 0.00 0.00
0.00 0.00 0.00 0.00 0.00 0.00 0.00 0.00 0.01 0.07 0.08 0.11 0.07 0.03 0.02 0.01 0.00 0.05 0.05 0.01 0.01 0.01 0.00 0.00 0.00 0.00 0.00 0.00 0.00 0.00 0.00 0.00 0.00 0.00 0.00 0.00 0.00 0.00 0.00 0.00 0.00 0.00 0.00
0.00 0.00 0.00 0.00 0.00 0.00 0.00 0.00 0.00 0.00 0.01 0.03 0.06 0.09 0.06 0.08 0.03 0.07 0.12 0.08 0.07 0.03 0.01 0.00 0.00 0.00 0.00 0.00 0.00 0.00 0.00 0.00 0.00 0.00 0.00 0.00 0.00 0.00 0.00 0.00 0.00 0.00 0.00
0.00 0.00 0.00 0.00 0.00 0.00 0.00 0.00 0.00 0.00 0.00 0.00 0.01 0.06 0.09 0.09 0.06 0.00 0.02 0.05 0.03 0.02 0.00 0.00 0.00 0.00 0.00 0.00 0.00 0.00 0.00 0.00 0.00 0.00 0.00 0.00 0.00 0.00 0.00 0.00 0.00 0.00 0.00
0.00 0.00 0.00 0.00 0.00 0.00 0.00 0.00 0.00 0.00 0.00 0.00 0.00 0.00 0.02 0.02 0.02 0.01 0.01 0.05 0.02 0.00 0.00 0.00 0.00 0.00 0.00 0.00 0.00 0.00 0.00 0.00 0.00 0.00 0.00 0.00 0.00 0.00 0.00 0.00 0.00 0.00 0.00
0.00 0.00 0.00 0.00 0.00 0.00 0.00 0.00 0.00 0.00 0.00 0.00 0.00 0.00 0.00 0.02 0.02 0.02 0.01 0.00 0.01 0.00 0.00 0.00 0.00 0.00 0.00 0.00 0.00 0.00 0.00 0.00 0.00 0.00 0.00 0.00 0.00 0.00 0.00 0.00 0.00 0.00 0.00
0.00 0.00 0.00 0.00 0.00 0.00 0.00 0.00 0.00 0.00 0.00 0.00 0.00 0.00 0.00 0.01 0.02 0.03 0.01 0.00 0.00 0.00 0.00 0.00 0.00 0.00 0.00 0.00 0.00 0.00 0.00 0.00 0.00 0.00 0.00 0.00 0.00 0.00 0.00 0.00 0.00 0.00 0.00
0.00 0.00 0.00 0.00 0.00 0.00 0.00 0.00 0.00 0.00 0.00 0.00 0.00 0.00 0.00 0.00 0.01 0.03 0.02 0.01 0.01 0.02 0.00 0.00 0.00 0.00 0.00 0.00 0.00 0.00 0.00 0.00 0.00 0.00 0.00 0.00 0.00 0.00 0.00 0.00 0.00 0.00 0.00
0.00 0.00 0.00 0.00 0.00 0.00 0.00 0.00 0.00 0.00 0.00 0.00 0.00 0.00 0.00 0.00 0.01 0.02 0.01 0.01 0.01 0.01 0.01 0.01 0.00 0.00 0.00 0.00 0.00 0.00 0.00 0.00 0.00 0.00 0.00 0.00 0.00 0.00 0.00 0.00 0.00 0.00 0.00
0.00 0.00 0.00 0.00 0.00 0.00 0.00 0.00 0.00 0.00 0.00 0.00 0.00 0.00 0.00 0.00 0.00 0.03 0.04 0.03 0.01 0.00 0.00 0.00 0.00 0.00 0.00 0.00 0.00 0.00 0.00 0.00 0.00 0.00 0.00 0.00 0.00 0.00 0.00 0.00 0.00 0.00 0.00
0.00 0.00 0.00 0.00 0.00 0.00 0.00 0.00 0.00 0.00 0.00 0.00 0.00 0.00 0.00 0.00 0.00 0.00 0.03 0.04 0.03 0.01 0.00 0.01 0.01 0.00 0.00 0.00 0.00 0.00 0.00 0.00 0.00 0.00 0.00 0.00 0.00 0.00 0.00 0.00 0.00 0.00 0.00
0.00 0.00 0.00 0.00 0.00 0.00 0.00 0.00 0.00 0.00 0.00 0.00 0.00 0.00 0.00 0.00 0.00 0.00 0.00 0.03 0.05 0.03 0.02 0.02 0.02 0.00 0.00 0.00 0.00 0.00 0.00 0.00 0.00 0.00 0.00 0.00 0.00 0.00 0.00 0.00 0.00 0.00 0.00
0.00 0.00 0.00 0.00 0.00 0.00 0.00 0.00 0.00 0.00 0.00 0.00 0.00 0.00 0.00 0.00 0.00 0.00 0.00 0.01 0.03 0.03 0.02 0.02 0.02 0.03 0.01 0.00 0.00 0.00 0.00 0.00 0.00 0.00 0.00 0.00 0.00 0.00 0.00 0.00 0.00 0.00 0.00
0.00 0.00 0.00 0.00 0.00 0.00 0.00 0.00 0.00 0.00 0.00 0.00 0.00 0.00 0.00 0.00 0.00 0.00 0.00 0.00 0.01 0.04 0.04 0.01 0.01 0.02 0.03 0.01 0.01 0.00 0.00 0.00 0.00 0.00 0.00 0.00 0.00 0.00 0.00 0.00 0.00 0.00 0.00
0.00 0.00 0.00 0.00 0.00 0.00 0.00 0.00 0.00 0.00 0.00 0.00 0.00 0.00 0.00 0.00 0.00 0.00 0.00 0.00 0.00 0.02 0.02 0.01 0.00 0.01 0.02 0.02 0.00 0.00 0.00 0.00 0.00 0.00 0.00 0.00 0.00 0.00 0.00 0.00 0.00 0.00 0.00
0.00 0.00 0.00 0.00 0.00 0.00 0.00 0.00 0.00 0.00 0.00 0.00 0.00 0.00 0.00 0.00 0.00 0.00 0.00 0.00 0.00 0.01 0.03 0.01 0.00 0.00 0.01 0.02 0.01 0.00 0.00 0.00 0.00 0.00 0.00 0.00 0.00 0.00 0.00 0.00 0.00 0.00 0.00
MSLP
1013.86 1013.72 1014.01 1014.09 1014.32 1014.43 1014.44 1014.61 1014.89 1015.21 1015.46 1015.70 1015.87 1016.03 1016.17 1016.30 1016.54 1016.72 1016.89 1016.92 1016.98 1016.99 1017.07 1017.11 1017.20 1017.30 1017.52 1017.60 1017.85 1018.04 1018.12 1018.20 1018.35 1018.46 1018.54 1018.61 1018.62 1018.61 1018.63 1018.44 1018.20 1018.22 1018.44
1014.29 1014.02 1013.98 1014.15 1014.43 1014.56 1014.61 1014.80 1015.04 1015.31 1015.59 1015.80 1016.04 1016.19 1016.36 1016.44 1016.57 1016.78 1016.92 1017.04 1017.06 1017.08 1017.10 1017.18 1017.47 1017.59 1017.83 1017.97 1018.20 1018.53 1018.64 1018.74 1018.81 1018.88 1018.94 1018.98 1019.00 1019.02 1018.98 1018.88 1018.68 1018.80 1018.85
1014.15 1013.85 1014.06 1014.22 1014.48 1014.74 1014.85 1014.98 1015.23 1015.46 1015.70 1015.87 1016.00 1016.20 1016.43 1016.57 1016.70 1016.78 1016.90 1017.04 1017.12 1017.17 1017.34 1017.50 1017.69 1017.80 1017.96 1018.29 1018.54 1018.85 1019.07 1019.16 1019.14 1019.06 1018.85 1018.72 1019.06 1019.30 1019.31 1019.34 1019.26 1019.24 1019.29
1013.71 1013.76 1013.81 1014.32 1014.55 1014.84 1014.96 1015.16 1015.28 1015.51 1015.77 1015.99 1016.15 1016.32 1016.53 1016.68 1016.85 1016.95 1016.93 1017.01 1017.18 1017.32 1017.54 1017.69 1017.96 1018.15 1018.39 1018.53 1018.80 1018.97 1019.36 1019.50 1019.36 1019.06 1018.54 1018.87 1019.06 1019.59 1019.52 1019.56 1019.64 1019.65 1019.65
1014.11 1014.03 1014.07 1014.40 1014.62 1014.93 1015.12 1015.25 1015.42 1015.66 1015.84 1016.05 1016.27 1016.44 1016.64 1016.88 1017.06 1017.16 1017.13 1017.17 1017.30 1017.48 1017.65 1018.00 1018.20 1018.38 1018.77 1018.86 1019.06 1019.20 1019.45 1019.69 1019.40 1018.89 1019.17 1019.20 1019.27 1019.81 1019.85 1019.98 1020.06 1020.06 1020.10
1015.01 1014.76 1014.72 1014.61 1014.68 1014.95 1015.21 1015.57 1015.75 1015.86 1016.01 1016.21 1016.28 1016.41 1016.66 1016.85 1017.16 1017.36 1017.41 1017.47 1017.60 1017.78 1017.97 1018.19 1018.34 1018.72 1019.09 1019.19 1019.29 1019.46 1019.65 1019.69 1019.39 1019.14 1019.18 1019.50 1019.60 1020.13 1020.26 1020.32 1020.36 1020.36 1020.39
1015.57 1015.40 1015.07 1015.08 1015.03 1015.19 1015.35 1015.57 1015.81 1015.91 1016.13 1016.21 1016.38 1016.50 1016.71 1016.79 1017.02 1017.38 1017.53 1017.65 1017.87 1018.06 1018.28 1018.41 1018.63 1018.92 1019.20 1019.53 1019.57 1019.73 1019.88 1019.76 1019.01 1019.08 1019.29 1019.51 1019.85 1020.24 1020.41 1020.62 1020.59 1020.70 1020.70
1015.82 1015.76 1015.75 1015.54 1015.32 1015.30 1015.43 1015.65 1015.80 1015.96 1016.00 1016.25 1016.39 1016.64 1016.75 1016.91 1017.04 1017.41 1017.61 1017.81 1018.08 1018.31 1018.49 1018.67 1018.90 1019.18 1019.28 1019.54 1019.89 1020.07 1020.10 1019.88 1019.32 1019.25 1019.63 1019.63 1020.14 1020.38 1020.51 1020.68 1020.90 1020.97 1021.00
1015.94 1015.94 1016.06 1015.82 1015.67 1015.68 1015.72 1015.73 1015.84 1016.00 1016.12 1016.14 1016.47 1016.60 1016.80 1017.07 1017.44 1017.63 1017.81 1018.03 1018.22 1018.46 1018.71 1018.97 1019.08 1019.31 1019.55 1019.70 1019.98 1020.35 1020.37 1020.13 1019.53 1019.48 1019.56 1019.84 1020.31 1020.45 1020.62 1020.81 1021.04 1021.16 1021.22
1016.19 1016.04 1015.97 1015.91 1015.86 1015.59 1015.70 1015.80 1015.87 1015.93 1016.07 1016.14 1016.36 1016.58 1016.82 1017.03 1017.16 1017.42 1017.75 1017.98 1018.32 1018.58 1018.86 1019.16 1019.40 1019.57 1019.74 1019.98 1020.21 1020.36 1020.64 1020.43 1019.67 1019.85 1019.84 1019.98 1020.50 1020.62 1020.74 1020.92 1020.99 1021.20 1021.42
1016.43 1016.36 1016.14 1016.03 1015.98 1015.89 1015.83 1015.87 1015.78 1015.73 1015.90 1016.04 1016.25 1016.53 1016.85 1016.80 1017.03 1017.42 1017.60 1018.04 1018.33 1018.59 1018.94 1019.23 1019.52 1019.77 1020.03 1020.27 1020.50 1020.64 1020.58 1019.93 1019.82 1019.88 1019.87 1020.56 1020.63 1020.82 1020.94 1021.11 1021.26 1021.35 1021.50
1016.38 1016.39 1016.35 1016.15 1016.02 1016.02 1015.82 1015.68 1015.52 1015.40 1015.50 1015.64 1015.84 1016.00 1016.20 1016.27 1016.51 1016.71 1017.28 1017.86 1018.15 1018.56 1018.89 1019.30 1019.57 1019.87 1020.21 1019.99 1020.51 1020.92 1020.20 1019.78 1019.90 1020.02 1020.01 1020.78 1020.76 1020.90 1021.17 1021.39 1021.49 1021.60 1021.68
1016.26 1016.41 1016.40 1016.30 1016.23 1016.08 1015.85 1015.72 1015.48 1015.35 1015.15 1015.20 1015.22 1015.58 1015.79 1016.05 1016.37 1016.76 1017.20 1017.66 1018.05 1018.53 1018.66 1019.09 1019.46 1019.40 1019.31 1019.31 1019.75 1020.02 1019.75 1019.79 1019.85 1020.07 1020.40 1020.96 1020.87 1020.95 1021.23 1021.46 1021.62 1021.70 1021.76
1016.02 1015.93 1015.95 1016.04 1016.05 1016.07 1015.95 1015.71 1015.51 1015.34 1015.17 1014.91 1014.91 1015.02 1015.43 1015.90 1016.22 1016.16 1016.56 1017.09 1017.49 1017.71 1017.87 1018.44 1018.68 1018.80 1018.92 1018.96 1019.21 1019.44 1019.69 1019.77 1019.87 1020.09 1020.41 1021.16 1021.06 1020.96 1021.22 1021.43 1021.60 1021.69 1021.79
1015.52 1015.47 1015.52 1015.61 1015.62 1015.58 1015.68 1015.54 1015.42 1015.25 1015.11 1014.84 1014.85 1014.79 1014.85 1015.02 1015.48 1015.65 1015.95 1016.64 1016.81 1017.15 1017.09 1017.84 1018.04 1018.30 1018.66 1018.86 1018.96 1019.25 1019.59 1019.78 1019.96 1020.05 1020.15 1021.03 1021.22 1021.17 1021.21 1021.36 1021.53 1021.64 1021.74
1015.26 1015.20 1015.19 1015.16 1015.15 1015.19 1015.21 1015.27 1015.12 1014.94 1014.88 1014.87 1014.68 1014.65 1014.82 1014.72 1014.75 1015.09 1015.52 1015.99 1016.21 1016.63 1016.89 1017.31 1017.51 1017.81 1018.19 1018.45 1018.71 1019.05 1019.40 1019.66 1019.78 1020.04 1020.06 1020.66 1021.19 1021.25 1021.25 1021.23 1021.32 1021.39 1021.52
1014.43 1014.49 1014.47 1014.54 1014.58 1014.65 1014.64 1014.63 1014.66 1014.64 1014.56 1014.48 1014.44 1014.39 1014.44 1014.60 1014.49 1014.62 1014.82 1015.23 1015.81 1016.05 1016.55 1017.03 1017.01 1017.43 1017.84 1018.03 1018.40 1018.62 1019.09 1019.38 1019.78 1019.90 1020.06 1020.12 1020.69 1021.21 1021.25 1021.24 1021.18 1021.27 1021.26
1013.87 1013.78 1013.82 1013.86 1013.83 1014.01 1014.02 1013.88 1013.72 1013.71 1013.86 1013.79 1013.80 1013.86 1013.95 1014.09 1014.19 1014.09 1014.46 1014.68 1015.15 1015.86 1016.11 1016.67 1017.06 1017.29 1017.64 1017.96 1017.98 1018.35 1018.69 1019.11 1019.28 1019.62 1019.83 1019.96 1020.18 1020.29 1021.03 1021.15 1021.14 1021.09 1021.16
1013.26 1013.12 1013.05 1013.20 1013.11 1013.19 1013.27 1013.31 1013.12 1012.98 1013.03 1013.05 1013.13 1013.18 1013.23 1013.31 1013.71 1013.90 1014.03 1014.17 1014.74 1015.27 1015.91 1016.26 1016.61 1017.09 1017.14 1017.68 1017.77 1018.00 1018.46 1018.71 1018.96 1019.20 1019.39 1019.67 1019.81 1020.15 1020.10 1020.67 1021.01 1021.07 1021.03
1012.30 1012.47 1012.30 1012.30 1012.28 1012.50 1012.47 1012.49 1012.50 1012.36 1012.27 1012.20 1012.24 1012.40 1012.58 1012.54 1012.68 1013.51 1013.37 1013.71 1014.01 1014.79 1015.38 1015.80 1016.20 1016.69 1016.73 1017.34 1017.69 1017.70 1018.18 1018.41 1018.52 1018.65 1018.96 1019.26 1019.52 1019.80 1019.95 1020.04 1020.28 1020.48 1020.70
1011.20 1011.16 1011.20 1011.26 1011.28 1011.58 1011.48 1011.38 1011.41 1011.28 1011.61 1011.58 1011.51 1011.60 1011.87 1012.02 1012.19 1012.29 1013.02 1013.28 1013.43 1013.78 1014.37 1015.15 1015.63 1016.24 1016.50 1017.21 1017.51 1017.58 1017.95 1018.26 1018.34 1018.37 1018.59 1018.69 1018.95 1019.28 1019.42 1019.55 1019.65 1019.60 1019.67
1010.20 1010.10 1010.23 1010.13 1010.32 1010.55 1010.65 1010.38 1010.39 1010.51 1010.55 1010.72 1010.98 1011.13 1011.20 1011.51 1011.77 1011.84 1011.86 1012.28 1012.77 1013.10 1013.66 1014.33 1015.00 1015.54 1016.29 1016.45 1016.54 1017.14 1017.57 1017.95 1017.97 1017.96 1018.16 1018.28 1018.35 1018.59 1018.80 1019.04 1019.14 1019.16 1019.15
1009.04 1009.34 1009.28 1009.24 1009.44 1009.52 1009.64 1009.94 1009.93 1009.99 1010.01 1010.08 1010.10 1010.59 1010.73 1010.98 1011.17 1011.25 1011.39 1011.58 1012.16 1012.59 1012.86 1013.46 1014.15 1014.66 1015.25 1015.99 1016.10 1016.07 1016.69 1016.07 1016.57 1016.75 1017.42 1017.67 1017.84 1018.06 1018.15 1018.31 1018.53 1018.62 1018.75
1008.07 1008.16 1008.16 1008.29 1008.31 1008.52 1008.72 1008.87 1008.66 1008.70 1008.68 1008.58 1009.09 1009.70 1010.07 1010.32 1010.54 1010.85 1011.04 1011.28 1011.38 1011.91 1012.19 1012.68 1013.43 1013.80 1014.51 1015.08 1015.86 1015.46 1015.70 1015.23 1015.80 1015.63 1016.62 1016.78 1017.04 1017.19 1017.40 1017.64 1017.90 1018.08 1018.34
1007.24 1007.10 1007.18 1007.39 1007.37 1007.40 1007.68 1007.82 1007.88 1007.82 1007.81 1008.07 1008.48 1008.82 1009.28 1009.61 1009.91 1010.17 1010.46 1010.75 1010.94 1011.17 1011.52 1012.17 1012.66 1013.36 1013.68 1014.02 1014.35 1014.84 1015.18 1015.47 1015.29 1015.19 1015.19 1015.85 1016.12 1016.41 1016.68 1017.04 1017.22 1017.45 1017.95
1006.16 1006.22 1006.28 1006.40 1006.22 1006.41 1006.67 1006.81 1006.88 1006.85 1007.13 1007.44 1007.72 1007.96 1008.23 1008.70 1009.06 1009.44 1009.80 1010.06 1010.26 1010.44 1010.90 1011.34 1011.93 1012.56 1013.02 1013.22 1013.55 1013.81 1014.10 1014.45 1015.05 1014.59 1014.91 1014.83 1015.15 1015.69 1016.06 1016.54 1016.80 1017.07 1017.40
Thickness
5770 5772 5771 5770 5769 5768 5768 5767 5764 5762 5760 5758 5757 5755 5754 5754 5751 5750 5746 5745 5744 5743 5743 5742 5740 5738 5736 5735 5733 5730 5729 5729 5728 5727 5727 5726 5726 5725 5725 5725 5726 5724 5721
5765 5768 5769 5768 5766 5766 5766 5764 5762 5760 5758 5756 5754 5753 5751 5751 5750 5748 5746 5744 5743 5742 5742 5741 5738 5737 5734 5732 5730 5727 5726 5725 5724 5723 5723 5723 5722 5722 5721 5722 5722 5719 5717
5764 5766 5766 5765 5764 5762 5761 5761 5759 5757 5755 5754 5753 5751 5749 5747 5747 5747 5745 5743 5742 5741 5740 5738 5736 5735 5734 5731 5728 5726 5723 5721 5721 5721 5723 5723 5720 5719 5718 5717 5717 5716 5714
5763 5763 5763 5761 5760 5758 5758 5757 5756 5755 5752 5751 5749 5748 5746 5745 5744 5743 5744 5742 5740 5739 5738 5736 5734 5733 5731 5729 5726 5725 5721 5719 5719 5721 5723 5721 5719 5715 5716 5715 5713 5712 5710
5756 5757 5758 5757 5756 5754 5753 5753 5752 5751 5749 5748 5746 5745 5744 5742 5741 5740 5740 5740 5737 5736 5735 5733 5731 5729 5727 5726 5724 5723 5720 5718 5719 5720 5717 5716 5716 5712 5711 5710 5710 5708 5707
5745 5748 5749 5750 5751 5749 5748 5746 5745 5746 5745 5744 5744 5743 5741 5740 5737 5736 5735 5735 5734 5732 5731 5730 5729 5725 5722 5722 5721 5720 5719 5717 5719 5718 5716 5713 5712 5708 5707 5706 5705 5705 5703
5736 5738 5741 5743 5743 5743 5743 5741 5741 5741 5740 5740 5740 5740 5738 5738 5736 5734 5732 5731 5730 5728 5726 5726 5725 5722 5720 5717 5718 5717 5716 5716 5719 5717 5715 5713 5709 5705 5704 5702 5702 5700 5699
5728 5731 5732 5735 5736 5737 5738 5737 5736 5736 5736 5736 5736 5735 5735 5733 5732 5730 5729 5728 5725 5724 5722 5720 5720 5718 5717 5715 5713 5712 5713 5714 5715 5714 5711 5710 5706 5704 5702 5700 5698 5697 5695
5721 5723 5724 5726 5729 5730 5731 5731 5731 5730 5731 5733 5732 5732 5730 5728 5726 5725 5724 5723 5721 5719 5718 5716 5715 5714 5712 5712 5709 5708 5709 5710 5713 5711 5710 5707 5704 5702 5700 5698 5696 5694 5692
5715 5716 5718 5719 5720 5723 5724 5726 5727 5726 5726 5728 5728 5728 5727 5726 5726 5724 5721 5719 5716 5714 5713 5712 5710 5708 5708 5707 5706 5705 5704 5705 5710 5708 5707 5705 5701 5699 5697 5695 5695 5693 5689
5706 5708 5711 5713 5714 5716 5717 5719 5722 5723 5724 5724 5724 5724 5723 5723 5722 5720 5719 5715 5713 5710 5708 5707 5706 5704 5703 5702 5701 5701 5701 5705 5706 5705 5705 5700 5698 5696 5694 5692 5691 5689 5688
5697 5699 5703 5706 5707 5708 5711 5713 5716 5718 5718 5719 5720 5721 5722 5722 5722 5721 5718 5713 5711 5707 5704 5701 5700 5700 5699 5699 5696 5695 5699 5702 5702 5702 5703 5697 5696 5693 5690 5688 5687 5686 5684
5690 5691 5694 5698 5700 5702 5704 5706 5709 5711 5715 5716 5717 5718 5718 5718 5717 5716 5714 5712 5707 5703 5701 5698 5696 5698 5700 5701 5698 5696 5699 5699 5699 5698 5698 5694 5693 5691 5688 5685 5683 5682 5681
5682 5686 5689 5691 5693 5694 5697 5700 5702 5703 5707 5711 5713 5714 5714 5712 5712 5715 5715 5712 5708 5706 5704 5699 5697 5696 5697 5698 5697 5697 5695 5695 5695 5694 5692 5689 5689 5689 5685 5684 5681 5679 5677
5675 5679 5681 5683 5686 5688 5689 5692 5694 5697 5699 5703 5705 5709 5711 5712 5711 5712 5714 5711 5709 5706 5705 5699 5697 5695 5694 5693 5694 5693 5692 5690 5690 5690 5690 5685 5684 5684 5683 5681 5679 5676 5674
5662 5667 5671 5672 5675 5678 5681 5683 5686 5689 5691 5694 5698 5701 5702 5706 5709 5710 5710 5710 5708 5706 5703 5699 5698 5696 5694 5692 5690 5688 5688 5687 5686 5685 5686 5682 5680 5680 5679 5679 5677 5675 5673
5658 5660 5663 5666 5667 5670 5673 5676 5678 5681 5683 5686 5690 5692 5695 5697 5702 5705 5707 5709 5706 5705 5702 5697 5697 5696 5692 5691 5689 5687 5683 5684 5682 5682 5681 5681 5678 5676 5676 5675 5674 5671 5671
5646 5650 5653 5656 5660 5660 5662 5667 5672 5676 5678 5681 5684 5686 5689 5691 5695 5700 5702 5704 5702 5699 5697 5697 5694 5692 5690 5687 5687 5685 5681 5680 5681 5679 5678 5678 5677 5676 5673 5672 5670 5669 5667
5635 5639 5642 5644 5649 5652 5653 5654 5660 5666 5670 5674 5677 5680 5684 5688 5689 5691 5695 5697 5696 5692 5693 5693 5692 5689 5687 5684 5682 5682 5678 5677 5679 5678 5677 5675 5675 5673 5673 5670 5667 5666 5664
5628 5627 5630 5632 5636 5636 5641 5644 5647 5653 5659 5664 5670 5675 5680 5684 5687 5682 5687 5689 5691 5688 5688 5689 5689 5685 5684 5680 5676 5677 5675 5674 5676 5677 5674 5672 5670 5669 5668 5667 5666 5664 5663
5616 5619 5618 5618 5621 5620 5625 5631 5635 5643 5645 5652 5659 5666 5671 5674 5676 5679 5677 5681 5685 5688 5688 5685 5683 5679 5680 5674 5669 5670 5669 5670 5671 5673 5670 5670 5668 5666 5665 5665 5663 5664 5663
5601 5602 5600 5603 5603 5603 5606 5615 5621 5626 5634 5639 5645 5650 5653 5656 5662 5669 5677 5680 5681 5682 5683 5680 5677 5676 5672 5675 5669 5663 5658 5661 5667 5668 5668 5667 5666 5664 5663 5662 5661 5661 5660
5583 5578 5579 5582 5582 5585 5590 5590 5598 5604 5612 5619 5630 5635 5642 5645 5652 5661 5668 5673 5672 5673 5677 5677 5674 5673 5671 5668 5667 5665 5655 5664 5665 5667 5664 5664 5663 5662 5661 5661 5659 5658 5657
5570 5566 5565 5562 5562 5565 5567 5571 5581 5592 5600 5616 5617 5622 5629 5634 5641 5646 5654 5661 5666 5667 5670 5674 5670 5669 5667 5664 5659 5666 5665 5671 5661 5661 5661 5662 5662 5662 5661 5659 5657 5655 5653
5558 5556 5552 5547 5545 5548 5547 5554 5561 5573 5590 5596 5599 5606 5611 5618 5626 5634 5641 5648 5656 5661 5663 5665 5666 5662 5664 5664 5663 5661 5660 5659 5660 5657 5658 5657 5660 5661 5659 5655 5653 5653 5649
5553 5548 5542 5535 5533 5528 5529 5537 5544 5559 5571 5576 5586 5594 5602 5610 5617 5625 5633 5640 5648 5655 5656 5659 5660 5658 5658 5661 5661 5661 5660 5656 5652 5658 5654 5657 5655 5655 5656 5653 5651 5648 5646